Wind_Speed
31 33 33 31 25 25 25 25 26 29 30 32 34 37 39 41 44 43 43 42 41 42 43 44 44 45 45 46 46 46 47 48 46 49 50 51 53 54 54 53 55 57 59 61 61 61 60
36 34 33 30 30 28 28 29 31 33 34 36 38 42 42 42 42 43 42 43 42 42 43 43 44 45 46 46 45 46 44 45 47 49 50 51 53 55 58 59 61 63 63 64 66 68 68
35 34 34 34 33 33 33 33 35 36 38 41 42 42 43 42 41 44 42 40 37 35 34 35 34 36 36 36 34 35 35 36 39 41 47 48 50 52 54 55 56 58 60 62 64 64 66
36 37 37 35 34 34 35 38 38 39 40 39 42 43 43 40 35 27 24 24 24 22 22 20 24 24 25 23 24 20 20 26 27 29 30 29 35 42 47 49 51 55 55 56 55 60 62
30 33 34 34 35 35 37 39 38 37 39 41 38 34 24 21 18 13 19 21 20 19 24 22 21 18 18 20 22 23 26 26 29 32 33 36 34 34 37 39 41 44 46 47 49 53 55
28 30 30 31 33 35 35 37 37 36 32 24 18 11 13 13 14 17 16 16 16 18 24 23 28 29 31 40 30 24 29 33 39 41 44 46 42 42 42 43 45 47 48 53 57 56 56
24 26 28 28 27 25 25 24 22 19 14 9 4 14 13 11 21 20 25 22 29 27 24 29 29 38 43 47 49 46 35 36 41 45 47 52 52 52 52 54 55 56 59 58 62 64 57
11 5 4 8 10 10 12 11 11 9 8 13 17 20 26 26 27 30 32 36 39 41 43 40 38 41 42 49 57 53 44 45 48 52 54 53 59 60 63 64 64 65 66 71 66 68 66
19 10 11 11 13 10 12 13 14 10 16 19 21 26 27 30 32 36 37 41 42 44 45 51 49 48 48 56 61 59 52 49 57 62 56 59 63 65 69 73 74 72 75 76 72 73 73
24 25 18 16 12 16 17 20 23 23 24 29 32 34 35 39 39 42 45 46 49 51 53 55 54 52 57 58 65 62 54 55 65 62 55 55 63 69 72 77 78 73 84 86 80 76 74
27 23 22 16 19 26 25 25 27 29 31 34 38 40 44 44 44 47 49 53 54 58 55 59 56 56 64 71 69 67 61 68 69 59 58 61 64 69 71 76 82 84 91 88 87 82 77
34 29 23 20 23 27 31 37 36 37 38 39 42 45 46 49 51 53 55 56 60 64 60 61 57 60 71 75 69 70 72 74 65 59 59 62 65 69 73 78 85 94 93 92 89 84 76
35 35 32 26 28 36 38 39 42 45 47 47 51 50 51 54 57 59 58 59 64 64 56 56 60 72 73 75 71 78 79 72 68 65 64 64 70 76 81 89 93 95 95 93 88 83 77
38 42 38 37 39 40 42 45 46 47 49 51 53 55 56 57 60 61 61 64 67 60 59 62 73 76 75 79 81 79 81 72 74 75 74 75 70 82 89 92 93 95 96 92 89 82 73
42 47 43 41 43 49 53 53 51 52 55 58 60 60 62 59 66 68 65 67 66 66 69 75 79 79 78 83 82 83 76 75 76 78 83 85 79 82 87 90 93 93 91 90 88 79 68
48 46 50 48 47 53 54 54 54 58 61 62 64 66 68 66 72 73 71 73 69 74 77 80 79 81 84 84 82 77 77 79 79 82 89 91 89 82 90 93 93 93 91 89 84 76 63
50 49 51 54 54 54 53 57 58 62 65 64 68 68 68 76 74 74 77 75 77 80 90 85 85 87 82 80 79 83 83 84 83 87 95 96 99 89 91 95 96 96 90 86 80 72 62
50 50 53 56 56 57 57 61 66 63 64 68 68 73 76 77 75 79 82 82 81 88 91 89 88 92 88 88 87 87 89 90 90 95 99 104 106 99 95 99 97 92 85 80 74 64 60
53 55 57 59 59 58 61 63 63 66 67 72 76 79 78 77 78 86 83 82 89 90 90 95 98 95 93 97 96 91 90 92 97 101 104 103 105 103 98 98 92 83 77 74 69 61 54
57 54 55 58 63 61 63 65 70 72 74 77 80 80 80 84 85 85 88 92 93 93 96 99 98 97 100 100 100 98 97 98 103 106 109 110 104 101 96 88 82 71 68 68 65 58 54
55 59 63 64 64 65 68 71 72 75 80 83 82 84 83 85 85 91 94 95 96 101 101 102 104 104 104 103 102 101 106 106 106 110 113 112 102 97 87 78 74 67 62 62 61 58 54
61 62 64 64 68 72 73 72 77 81 86 83 87 85 87 90 96 95 98 101 103 104 103 106 108 110 112 111 111 110 114 114 104 103 103 101 95 87 76 76 72 66 62 58 59 58 52
68 71 72 72 77 74 75 79 83 85 83 84 87 90 91 96 101 105 105 104 109 107 112 113 115 114 114 115 115 117 118 112 104 93 85 83 84 86 76 73 72 63 59 60 60 56 56
73 73 74 74 76 77 81 79 85 84 85 87 91 95 98 106 106 106 109 111 109 114 118 119 119 118 118 119 120 118 112 101 91 85 83 79 76 79 75 77 71 64 65 64 58 54 56
72 72 73 77 78 77 79 81 83 83 87 90 96 100 109 106 108 109 110 112 116 120 120 123 123 122 122 122 115 107 96 91 87 85 83 80 75 73 73 71 71 66 63 61 59 57 56
74 75 75 75 76 78 80 81 86 87 89 96 101 106 102 108 110 112 114 117 122 120 124 123 125 124 124 116 103 97 88 84 81 82 79 75 72 69 65 63 66 62 60 61 64 63 60
75 75 74 78 79 79 82 87 90 92 99 99 105 102 109 115 114 115 120 122 121 123 123 124 124 123 117 108 101 93 91 84 78 74 70 71 65 62 60 57 57 57 60 59 67 64 58
76 78 81 82 81 86 86 91 93 99 98 101 103 111 113 116 117 121 123 122 124 121 124 125 121 109 104 99 97 93 86 79 74 68 64 62 61 58 53 52 50 54 54 59 60 58 56
84 82 84 80 88 85 88 95 99 99 103 106 112 113 117 119 121 123 123 125 122 126 124 120 107 103 97 95 92 88 82 72 66 62 56 53 52 52 48 46 45 47 49 53 58 57 56
Wind_Direction
257 259 262 266 273 274 279 277 278 281 287 292 295 298 302 303 304 304 301 300 300 299 298 297 295 293 291 288 287 287 287 285 281 278 277 270 269 271 269 267 267 268 270 271 272 273 274
258 259 264 271 277 278 281 284 285 288 291 294 299 300 301 302 302 303 302 301 297 296 295 292 292 291 289 289 288 287 286 285 281 278 277 275 275 272 272 272 270 271 272 271 271 274 274
258 258 264 270 273 278 282 285 290 290 293 296 300 303 304 302 301 301 303 302 302 303 298 299 296 297 295 294 294 292 290 289 287 286 281 280 278 275 273 273 273 273 273 272 271 271 272
257 262 265 272 275 276 279 285 288 291 294 296 299 300 300 300 306 308 307 308 312 307 300 295 298 297 298 297 293 292 295 280 281 285 279 284 280 276 274 273 273 273 272 272 272 272 272
261 264 267 274 278 282 284 286 286 288 293 297 299 300 300 303 306 313 329 334 325 310 305 299 299 307 315 321 296 294 308 312 301 303 300 294 287 288 284 284 279 276 274 276 275 276 272
269 270 271 272 272 276 282 286 292 294 295 296 294 310 319 319 318 318 333 327 331 314 319 312 333 315 330 335 318 315 311 315 320 319 320 315 305 299 293 297 295 290 287 289 287 282 277
271 271 275 280 286 290 290 294 297 300 303 320 344 331 336 336 328 331 327 338 333 334 327 329 328 331 332 336 333 324 315 315 318 317 315 312 312 305 303 301 298 294 294 289 287 282 275
328 309 320 338 337 351 349 339 325 326 284 302 333 306 321 320 334 330 325 326 324 320 317 318 318 321 315 328 329 324 315 314 314 312 311 309 305 305 304 304 299 298 299 300 294 291 280
344 327 327 330 5 350 344 328 313 295 304 307 335 338 334 334 332 329 327 324 321 321 318 312 310 315 315 322 325 325 316 315 314 315 306 304 302 302 302 299 296 298 298 297 293 287 282
325 328 311 307 318 335 338 330 328 328 305 318 325 329 326 324 322 325 324 322 323 319 314 313 307 308 314 321 319 318 307 306 310 309 304 303 299 298 297 297 296 298 299 300 296 288 283
312 307 301 297 313 315 323 324 322 321 323 325 320 318 318 319 321 321 321 318 313 318 314 314 307 305 312 315 314 317 311 309 308 303 302 299 298 297 296 295 296 301 301 299 297 292 286
302 301 289 289 296 302 310 314 311 317 317 316 315 317 315 316 319 316 315 316 316 315 315 310 308 303 309 310 313 311 312 309 306 301 298 297 298 299 300 298 298 299 298 297 297 293 289
293 293 289 280 291 295 298 306 312 314 315 312 313 312 314 314 313 313 314 318 315 313 311 311 308 308 312 312 307 310 309 307 303 299 299 302 301 301 300 297 297 297 298 299 295 292 292
283 292 294 287 294 293 295 297 299 304 308 309 307 308 309 310 312 312 311 309 316 315 308 307 309 314 312 309 307 306 308 303 304 305 306 304 301 297 298 299 299 299 297 298 295 293 291
284 283 289 288 285 287 296 296 295 299 303 307 307 308 308 307 310 312 309 310 314 315 312 312 312 310 308 307 306 305 304 306 307 306 303 300 299 297 297 298 298 298 299 299 297 292 289
274 279 276 282 291 289 293 292 292 293 298 304 305 303 306 305 309 312 309 315 315 315 314 313 310 309 307 306 305 304 308 309 306 304 304 301 299 300 298 300 299 300 300 299 296 291 287
277 282 282 283 288 292 293 290 289 293 298 300 305 304 306 310 311 315 316 314 313 309 311 311 311 313 311 310 310 310 311 308 304 302 304 303 300 300 300 303 301 299 299 296 292 289 286
278 281 282 281 282 289 289 290 293 295 300 302 303 305 308 314 315 315 313 310 309 311 312 311 311 317 315 317 315 311 308 305 304 303 302 301 301 302 302 301 299 298 296 292 287 284 284
277 275 279 281 283 286 288 290 292 296 301 303 308 309 311 312 311 310 309 308 311 312 313 312 315 318 316 316 312 309 306 303 303 303 302 301 301 300 299 297 296 296 292 287 282 280 278
278 278 279 282 286 283 286 290 295 298 300 305 309 309 308 310 308 311 309 312 314 314 313 316 317 314 315 311 310 308 306 305 305 304 303 301 298 297 296 294 292 290 286 283 280 277 271
274 279 281 284 283 284 287 290 294 297 301 306 309 308 308 308 310 308 312 315 314 316 316 317 313 312 312 310 308 307 307 306 305 303 301 298 297 295 293 292 287 283 279 277 273 272 271
277 277 277 280 287 289 291 293 296 298 301 305 309 306 310 311 310 312 313 315 316 317 315 313 313 314 311 311 310 309 308 305 304 301 297 294 295 289 288 286 283 280 276 273 271 267 264
275 278 280 284 288 289 293 293 296 300 300 302 306 310 310 310 312 312 314 315 316 315 313 314 314 311 311 311 310 308 306 306 304 299 294 290 288 287 288 281 277 276 274 267 262 262 263
276 279 282 288 288 289 294 296 296 298 302 305 309 309 310 312 313 314 315 315 314 314 315 313 312 313 311 310 308 307 307 304 301 297 293 288 285 282 280 277 275 270 264 263 261 260 260
279 284 285 286 289 292 293 293 296 300 304 305 308 309 311 311 313 315 314 314 314 313 314 312 312 311 309 309 309 307 306 304 301 297 293 289 286 280 276 273 272 268 263 261 259 254 251
281 287 288 288 289 290 291 294 298 301 303 306 307 311 310 311 312 313 313 312 314 315 312 313 310 310 310 310 308 308 306 303 300 298 294 291 287 283 278 274 268 267 262 258 255 252 247
281 284 286 289 290 291 294 298 300 302 304 307 311 309 310 311 311 312 311 314 314 312 311 309 310 311 310 311 311 310 308 305 302 298 295 292 288 284 280 274 269 263 258 252 251 249 247
281 283 287 289 291 293 295 296 300 304 306 308 307 309 311 311 311 311 313 314 312 311 309 310 311 311 312 312 311 309 307 306 304 300 296 291 288 284 278 273 266 263 257 253 251 250 244
282 286 288 289 291 295 295 298 304 305 306 306 308 310 311 311 312 313 313 311 310 309 311 312 312 313 313 312 310 309 308 306 303 299 295 291 287 284 278 271 264 258 254 251 248 244 239
Height
10740 10740 10740 10740 10741 10740 10741 10741 10741 10740 10739 10738 10736 10733 10731 10728 10725 10722 10719 10716 10714 10711 10708 10705 10703 10701 10699 10697 10695 10693 10691 10688 10687 10684 10682 10681 10680 10678 10677 10675 10673 10671 10669 10667 10666 10665 10664
10735 10735 10736 10737 10737 10737 10737 10737 10736 10735 10733 10731 10729 10727 10724 10721 10717 10714 10710 10708 10706 10703 10699 10696 10693 10690 10688 10687 10684 10681 10679 10678 10675 10671 10669 10667 10666 10665 10664 10663 10661 10659 10657 10654 10651 10650 10649
10731 10732 10732 10733 10732 10732 10732 10732 10730 10729 10727 10725 10722 10719 10716 10712 10709 10706 10702 10698 10695 10693 10690 10687 10685 10682 10679 10676 10675 10671 10669 10666 10663 10660 10656 10654 10652 10651 10649 10647 10644 10642 10641 10639 10635 10634 10632
10726 10727 10727 10727 10727 10727 10727 10726 10724 10723 10721 10718 10715 10712 10709 10705 10702 10698 10695 10692 10689 10687 10685 10682 10680 10677 10674 10671 10667 10665 10662 10658 10654 10651 10647 10644 10641 10638 10635 10634 10631 10628 10626 10622 10618 10617 10617
10721 10722 10723 10722 10722 10721 10720 10719 10717 10715 10713 10711 10708 10705 10702 10699 10697 10694 10691 10688 10685 10683 10681 10680 10676 10673 10670 10666 10662 10659 10654 10651 10647 10644 10640 10636 10631 10627 10624 10621 10617 10615 10613 10608 10603 10600 10600
10716 10716 10716 10716 10715 10714 10712 10710 10709 10708 10706 10704 10703 10702 10699 10696 10693 10691 10688 10684 10682 10681 10677 10674 10670 10668 10664 10660 10655 10650 10646 10642 10639 10634 10630 10625 10621 10615 10612 10608 10605 10601 10598 10594 10588 10585 10587
10711 10711 10711 10710 10709 10707 10705 10704 10703 10702 10702 10702 10701 10699 10698 10695 10691 10688 10685 10681 10678 10673 10671 10667 10663 10657 10653 10650 10646 10641 10635 10630 10627 10624 10620 10614 10608 10603 10598 10594 10590 10586 10582 10578 10570 10565 10571
10708 10707 10706 10705 10704 10703 10701 10700 10700 10700 10700 10699 10697 10695 10692 10689 10686 10683 10680 10677 10672 10668 10662 10660 10656 10650 10644 10639 10635 10630 10625 10620 10615 10610 10606 10601 10593 10589 10584 10578 10573 10568 10564 10557 10557 10547 10547
10707 10705 10704 10702 10702 10701 10701 10700 10699 10698 10697 10695 10692 10689 10686 10683 10679 10677 10673 10669 10664 10659 10654 10646 10644 10640 10635 10630 10624 10618 10611 10605 10599 10595 10591 10586 10576 10572 10567 10560 10552 10551 10541 10537 10533 10528 10525
10704 10702 10701 10700 10699 10698 10697 10695 10693 10692 10691 10688 10684 10683 10680 10677 10673 10669 10664 10659 10654 10650 10645 10638 10631 10626 10620 10613 10608 10603 10597 10592 10585 10580 10575 10570 10562 10558 10552 10541 10529 10534 10517 10511 10507 10503 10505
10701 10698 10696 10695 10694 10692 10690 10690 10688 10686 10683 10680 10677 10674 10671 10668 10664 10659 10654 10649 10644 10639 10634 10626 10620 10614 10608 10602 10595 10587 10582 10575 10569 10565 10559 10551 10548 10541 10534 10523 10512 10506 10498 10490 10482 10476 10480
10694 10692 10690 10688 10687 10685 10684 10683 10680 10677 10675 10672 10669 10664 10661 10657 10652 10649 10643 10638 10631 10625 10621 10612 10608 10602 10596 10588 10581 10575 10567 10558 10550 10546 10541 10538 10529 10522 10515 10505 10495 10484 10474 10466 10458 10453 10459
10688 10686 10684 10682 10680 10678 10676 10673 10670 10667 10665 10662 10659 10654 10650 10646 10641 10636 10632 10627 10620 10614 10609 10602 10595 10589 10579 10570 10564 10557 10550 10538 10528 10525 10522 10519 10512 10501 10491 10483 10474 10462 10450 10441 10436 10432 10434
10680 10678 10677 10675 10672 10669 10667 10664 10662 10661 10657 10653 10650 10645 10641 10636 10630 10625 10620 10614 10608 10599 10594 10587 10580 10570 10562 10554 10546 10537 10529 10520 10506 10496 10496 10494 10502 10485 10474 10459 10449 10442 10428 10416 10404 10407 10411
10672 10670 10669 10666 10664 10661 10659 10656 10652 10649 10647 10642 10638 10634 10629 10623 10618 10613 10607 10600 10591 10583 10576 10568 10557 10557 10545 10535 10525 10516 10508 10498 10488 10478 10468 10462 10477 10466 10451 10439 10428 10417 10408 10396 10382 10383 10385
10662 10661 10659 10657 10654 10651 10648 10645 10642 10637 10634 10630 10625 10622 10617 10611 10603 10596 10588 10581 10572 10564 10558 10550 10543 10535 10526 10515 10504 10491 10487 10476 10468 10456 10443 10435 10430 10445 10427 10415 10403 10389 10382 10372 10362 10359 10364
10651 10650 10648 10647 10643 10639 10636 10634 10631 10627 10621 10617 10613 10608 10604 10595 10586 10578 10569 10562 10556 10547 10537 10529 10521 10512 10503 10492 10482 10471 10463 10455 10446 10434 10418 10405 10396 10413 10400 10389 10377 10365 10359 10348 10338 10337 10340
10641 10639 10637 10635 10632 10629 10625 10620 10617 10615 10610 10604 10599 10592 10586 10577 10568 10561 10554 10546 10539 10529 10517 10505 10498 10487 10476 10465 10459 10449 10441 10430 10421 10412 10399 10380 10366 10367 10371 10360 10348 10341 10333 10323 10316 10322 10321
10629 10627 10624 10622 10620 10617 10613 10608 10602 10599 10595 10590 10584 10576 10569 10563 10556 10548 10538 10529 10520 10508 10496 10484 10472 10460 10450 10440 10430 10427 10418 10408 10395 10380 10365 10356 10344 10336 10341 10332 10323 10317 10309 10300 10297 10301 10306
10616 10615 10612 10610 10607 10604 10600 10596 10590 10584 10579 10575 10570 10563 10555 10548 10538 10528 10518 10509 10496 10487 10475 10461 10448 10437 10427 10417 10404 10398 10389 10380 10366 10348 10330 10317 10316 10309 10302 10304 10297 10296 10287 10278 10277 10281 10283
10603 10601 10600 10596 10594 10590 10586 10583 10577 10571 10565 10559 10552 10546 10538 10530 10520 10510 10497 10487 10475 10458 10445 10434 10424 10413 10404 10394 10385 10368 10356 10348 10339 10322 10301 10277 10282 10273 10276 10275 10268 10269 10268 10260 10259 10260 10263
10591 10589 10586 10583 10580 10576 10571 10566 10562 10557 10550 10542 10535 10528 10519 10508 10498 10486 10476 10466 10452 10437 10424 10413 10398 10383 10368 10357 10344 10337 10320 10310 10310 10301 10277 10255 10246 10244 10254 10244 10239 10243 10244 10244 10238 10238 10243
10577 10576 10573 10570 10567 10562 10557 10551 10545 10539 10532 10524 10516 10507 10497 10487 10476 10465 10452 10438 10425 10414 10398 10383 10371 10359 10343 10328 10315 10301 10285 10276 10266 10257 10251 10236 10223 10212 10222 10216 10211 10219 10222 10215 10217 10220 10219
10562 10561 10560 10557 10553 10547 10542 10536 10529 10521 10513 10505 10496 10486 10475 10465 10451 10438 10427 10415 10400 10385 10369 10351 10336 10325 10311 10297 10285 10268 10253 10242 10231 10223 10211 10205 10200 10188 10190 10182 10185 10193 10189 10190 10196 10202 10200
10549 10547 10545 10542 10538 10531 10525 10519 10513 10506 10497 10485 10474 10463 10454 10441 10428 10416 10404 10389 10374 10357 10336 10320 10304 10295 10280 10267 10252 10240 10226 10211 10197 10184 10176 10168 10166 10161 10156 10156 10155 10162 10166 10170 10173 10178 10181
10533 10532 10530 10527 10522 10516 10507 10501 10496 10489 10481 10470 10458 10448 10435 10420 10410 10395 10380 10366 10351 10330 10307 10292 10275 10259 10243 10232 10216 10204 10195 10187 10177 10155 10144 10138 10132 10128 10129 10131 10128 10135 10143 10146 10144 10150 10156
10519 10517 10515 10510 10504 10498 10491 10484 10478 10470 10463 10450 10437 10426 10414 10402 10386 10373 10357 10339 10323 10304 10289 10270 10253 10232 10208 10195 10181 10173 10160 10153 10142 10131 10122 10105 10104 10103 10101 10104 10106 10110 10112 10120 10114 10123 10139
10506 10503 10499 10492 10486 10481 10474 10466 10459 10451 10439 10431 10417 10406 10391 10375 10362 10344 10329 10312 10293 10279 10261 10241 10226 10208 10189 10172 10156 10144 10132 10124 10114 10103 10095 10087 10080 10078 10080 10080 10084 10083 10090 10092 10096 10105 10118
10491 10486 10481 10475 10470 10463 10455 10448 10439 10428 10418 10408 10397 10384 10367 10346 10332 10317 10300 10282 10262 10244 10233 10213 10197 10181 10166 10153 10134 10118 10105 10097 10088 10079 10073 10068 10062 10057 10059 10059 10062 10064 10069 10071 10073 10085 10097